YAOGAN-37

导读

YAOGAN-37(遥感三十七号)是中国研制的遥感卫星,于北京时间2023年1月13日,在酒泉卫星发射中心由长征二号丁运载火箭发射升空,同箭搭载试验二十二号A/B星,卫星顺利进入预定轨道,任务取得圆满成功。该卫星由航天科技集团八院抓总研制,主要用于开展空间环境监测等新技术在轨验证试验,任务采用创新串并联发射构型,实现了技术突破。

Basic Information
目录编号:
55244
目录名称:
YAOGAN-37
国际标识:
2023-006C
轨道中心:
EARTH
卫星名称:
YAOGAN-37
卫星全名:
--
卫星状态:
在轨 (已飞行1330 天)
发射日期:
2023-01-13 UTC
国别 :
中国 (CN)
星等 :
--
Orbit Information
数据来源 国际轨道数据 AOE轨道数据
星历时间 2026-09-04T04:56:32+0800
6小时前
查看轨道信息
2026-09-03T17:00:00+0800
18小时前
查看轨道信息
半长轴 6890.606km 6890.607km
偏心率 0.001544 0.0015368
轨道倾角 43.197° 43.199°
近地点辐角 152.904° 149.926°
升交点赤经 46.507° 49.268°
平近点角 207.262° 8.192°
近地点 501.829km 501.88km
远地点 523.109km 523.06km
周期 94.874分钟 94.874分钟
每日圈数 15.178075 15.17807
Detailed Information
使用方式:
暂无
2D Orbit Map
3D Orbit Map
Orbit Altitude Analysis Chart
Orbit Inclination Analysis Chart
Orbit Comprehensive Analysis Chart
View Comprehensive Chart
Conjunction Data List
Event ID Objects TCA Miss Dist (km) Collision Risk Probability Collision Risk Index (CRI) Action
CDM_260901-075505-524406-392621
2026-09-01T
07:55:53+0000
2.939 km
极远距离
1.199004E-6 低风险 0.37